Weather History for Cumberland, MD

Change the Weather History Date:

Wednesday, February 19, 2014

  Actual Average (KMRB) Record (KMRB)
Temperature  
Mean Temperature 42 °F 34 °F  
Max Temperature 57 °F 44 °F 71 °F (1948)
Min Temperature 28 °F 25 °F 5 °F (1936)
Degree Days  
Heating Degree Days 22 30  
Month to date heating degree days 610  
Since 1 July heating degree days 3693  
Cooling Degree Days 0 0  
Month to date cooling degree days 0  
Year to date cooling degree days 0  
Moisture  
Dew Point 30 °F    
Average Humidity 70    
Maximum Humidity 100    
Minimum Humidity 36    
Precipitation  
Precipitation 0.00 in 0.08 in 0.95 in (1940)
Month to date precipitation 1.56  
Year to date precipitation 4.00  
Sea Level Pressure  
Sea Level Pressure 29.93 in    
Wind  
Wind Speed 3 mph (West)    
Max Wind Speed 29 mph    
Max Gust Speed 44 mph    
Visibility 9 miles    
Events      
T = Trace of Precipitation, MM = Missing Value Source: NWS Daily Summary

Daily Weather History Graph

Daily Weather History Graph

Search for Another Location

Airport:

Trip Planner

Search our weather history database for the weather conditions in past years. The results will help you decide how hot, cold, wet, or windy it might be!

Date:

Astronomy

Feb. 19, 2014 Rise Set
Actual Time 7:02 AM EST 5:56 PM EST
Civil Twilight 6:34 AM EST 6:23 PM EST
Nautical Twilight 6:03 AM EST 6:54 PM EST
Astronomical Twilight 5:32 AM EST 7:26 PM EST
Moon 10:46 PM EST (2/19) 9:08 AM EST (2/19)
Length of Visible Light 11h 48m
Length of Day
10h 53m
Waning Gibbous, 80% of the Moon is Illuminated
Feb 19
Waning Gibbous
Feb 22
Last Quarter
Mar 1
New
Mar 8
First Quarter
Mar 16
Full

Hourly Weather History & Observations

Time (EST) Temp. Windchill Dew Point Humidity Pressure Visibility Wind Dir Wind Speed Gust Speed Precip Events Conditions
12:17 AM 32.0 °F - 26.6 °F 80% 30.04 in 10.0 mi Calm Calm - N/A   Clear
12:37 AM 30.2 °F - 26.6 °F 86% 30.04 in 10.0 mi Calm Calm - N/A   Clear
12:57 AM 32.0 °F - 26.6 °F 80% 30.02 in 10.0 mi Calm Calm - N/A   Clear
1:17 AM 32.0 °F - 26.6 °F 80% 30.01 in 10.0 mi Calm Calm - N/A   Clear
1:37 AM 30.2 °F - 26.6 °F 86% 30.00 in 10.0 mi Calm Calm - N/A   Clear
1:57 AM 30.2 °F 26.7 °F 26.6 °F 86% 29.99 in 10.0 mi North 3.5 mph - N/A   Clear
2:17 AM 32.0 °F - 26.6 °F 80% 29.99 in 10.0 mi Calm Calm - N/A   Clear
2:37 AM 30.2 °F - 26.6 °F 86% 29.98 in 10.0 mi Calm Calm - N/A   Clear
2:57 AM 30.2 °F - 26.6 °F 86% 29.96 in 10.0 mi Calm Calm - N/A   Clear
3:17 AM 28.4 °F - 23.0 °F 80% 29.95 in 10.0 mi Calm Calm - N/A   Clear
3:37 AM 28.4 °F - 24.8 °F 86% 29.94 in 10.0 mi Calm Calm - N/A   Clear
3:57 AM 30.2 °F - 26.6 °F 86% 29.91 in 10.0 mi Calm Calm - N/A   Scattered Clouds
4:17 AM 28.4 °F - 24.8 °F 86% 29.90 in 10.0 mi Calm Calm - N/A   Scattered Clouds
4:37 AM 28.4 °F - 26.6 °F 93% 29.89 in 10.0 mi Calm Calm - N/A   Scattered Clouds
4:58 AM 30.2 °F - 26.6 °F 86% 29.89 in 10.0 mi Calm Calm - N/A   Scattered Clouds
5:18 AM 30.2 °F - 26.6 °F 86% 29.87 in 10.0 mi Calm Calm - N/A   Scattered Clouds
5:38 AM 30.2 °F - 26.6 °F 86% 29.87 in 10.0 mi Calm Calm - N/A   Mostly Cloudy
6:58 AM 32.0 °F - 30.2 °F 93% 29.85 in 3.0 mi Calm Calm - N/A   Overcast
7:18 AM 32.0 °F - 30.2 °F 93% 29.85 in 4.0 mi Calm Calm - N/A   Mostly Cloudy
7:38 AM 32.0 °F - 30.2 °F 93% 29.86 in 7.0 mi Calm Calm - N/A   Scattered Clouds
7:58 AM 32.0 °F - 30.2 °F 93% 29.86 in 4.0 mi Calm Calm - N/A   Mostly Cloudy
8:18 AM 32.0 °F - 30.2 °F 93% 29.86 in 2.5 mi Calm Calm - N/A   Overcast
8:38 AM 32.0 °F - 32.0 °F 100% 29.85 in 5.0 mi Calm Calm - N/A   Scattered Clouds
8:58 AM 32.0 °F - 32.0 °F 100% 29.84 in 5.0 mi Calm Calm - N/A   Mostly Cloudy
9:18 AM 32.0 °F - 32.0 °F 100% 29.83 in 5.0 mi Calm Calm - N/A   Overcast
9:38 AM 32.0 °F - 32.0 °F 100% 29.83 in 5.0 mi Calm Calm - N/A   Overcast
9:58 AM 33.8 °F - 32.0 °F 93% 29.84 in 5.0 mi Calm Calm - N/A   Mostly Cloudy
10:18 AM 33.8 °F - 32.0 °F 93% 29.83 in 5.0 mi Calm Calm - N/A   Mostly Cloudy
10:38 AM 33.8 °F - 32.0 °F 93% 29.83 in 7.0 mi Calm Calm - N/A   Overcast
10:58 AM 35.6 °F - 32.0 °F 87% 29.82 in 7.0 mi Calm Calm - N/A   Overcast
11:18 AM 35.6 °F - 32.0 °F 87% 29.81 in 5.0 mi Calm Calm - N/A   Overcast
11:38 AM 37.4 °F - 32.0 °F 81% 29.80 in 7.0 mi Calm Calm - N/A   Mostly Cloudy
11:58 AM 39.2 °F - 32.0 °F 75% 29.79 in 10.0 mi Calm Calm - N/A   Scattered Clouds
12:18 PM 41.0 °F - 32.0 °F 70% 29.77 in 10.0 mi Calm Calm - N/A   Scattered Clouds
12:38 PM 42.8 °F - 32.0 °F 66% 29.77 in 10.0 mi Calm Calm - N/A   Clear
12:58 PM 44.6 °F - 33.8 °F 66% 29.75 in 10.0 mi Calm Calm - N/A   Clear
1:18 PM 42.8 °F - 33.8 °F 70% 29.76 in 10.0 mi Calm Calm - N/A   Scattered Clouds
1:39 PM 41.0 °F 36.4 °F 37.4 °F 87% 29.76 in 5.0 mi South 6.9 mph - N/A   Mostly Cloudy
1:59 PM 53.6 °F - 41.0 °F 62% 29.77 in 10.0 mi WSW 17.3 mph 26.5 mph N/A   Clear
2:19 PM 55.4 °F - 39.2 °F 54% 29.76 in 10.0 mi West 12.7 mph 26.5 mph N/A   Clear
2:39 PM 57.2 °F - 35.6 °F 44% 29.77 in 10.0 mi West 17.3 mph 29.9 mph N/A   Clear
2:59 PM 55.4 °F - 32.0 °F 41% 29.79 in 10.0 mi WSW 17.3 mph 28.8 mph N/A   Clear
3:19 PM 55.4 °F - 32.0 °F 41% 29.81 in 10.0 mi WSW 12.7 mph 27.6 mph N/A   Clear
3:39 PM 55.4 °F - 32.0 °F 41% 29.82 in 10.0 mi WSW 15.0 mph 42.6 mph N/A   Clear
3:59 PM 53.6 °F - 30.2 °F 41% 29.85 in 10.0 mi West 20.7 mph 43.7 mph N/A   Clear
4:19 PM 55.4 °F - 28.4 °F 36% 29.87 in 10.0 mi West 19.6 mph 31.1 mph N/A   Clear
4:39 PM 53.6 °F - 28.4 °F 38% 29.89 in 10.0 mi West 28.8 mph 41.4 mph N/A   Scattered Clouds
4:59 PM 53.6 °F - 28.4 °F 38% 29.92 in 10.0 mi West 20.7 mph 39.1 mph N/A   Clear
5:19 PM 53.6 °F - 28.4 °F 38% 29.94 in 10.0 mi West 23.0 mph 31.1 mph N/A   Clear
5:39 PM 51.8 °F - 28.4 °F 41% 29.96 in 10.0 mi West 17.3 mph 34.5 mph N/A   Clear
5:59 PM 51.8 °F - 28.4 °F 41% 29.99 in 10.0 mi West 13.8 mph 34.5 mph N/A   Clear
6:19 PM 50.0 °F - 30.2 °F 47% 30.01 in 10.0 mi West 15.0 mph 23.0 mph N/A   Clear
6:39 PM 50.0 °F - 30.2 °F 47% 30.03 in 10.0 mi West 13.8 mph 31.1 mph N/A   Clear
6:59 PM 50.0 °F - 30.2 °F 47% 30.04 in 10.0 mi West 13.8 mph 32.2 mph N/A   Clear
7:19 PM 48.2 °F - 28.4 °F 46% 30.06 in 10.0 mi WNW 6.9 mph 19.6 mph N/A   Clear
7:39 PM 48.2 °F - 30.2 °F 50% 30.08 in 10.0 mi West 8.1 mph 24.2 mph N/A   Clear
7:59 PM 48.2 °F - 30.2 °F 50% 30.09 in 10.0 mi West 12.7 mph 26.5 mph N/A   Clear
8:19 PM 46.4 °F 45.2 °F 30.2 °F 53% 30.11 in 10.0 mi WNW 3.5 mph - N/A   Clear
8:39 PM 46.4 °F 43.5 °F 30.2 °F 53% 30.12 in 10.0 mi West 5.8 mph - N/A   Clear
8:59 PM 46.4 °F 43.5 °F 30.2 °F 53% 30.12 in 10.0 mi NW 5.8 mph 16.1 mph N/A   Clear
9:19 PM 46.4 °F - 30.2 °F 53% 30.13 in 10.0 mi Calm Calm - N/A   Clear
9:39 PM 44.6 °F 40.2 °F 30.2 °F 57% 30.13 in 10.0 mi NNE 8.1 mph 16.1 mph N/A   Clear
9:59 PM 44.6 °F - 28.4 °F 53% 30.15 in 10.0 mi Calm Calm - N/A   Clear
10:19 PM 44.6 °F 43.1 °F 28.4 °F 53% 30.15 in 10.0 mi WSW 3.5 mph - N/A   Clear
10:40 PM 42.8 °F 39.3 °F 28.4 °F 57% 30.16 in 10.0 mi SW 5.8 mph - N/A   Clear
11:00 PM 42.8 °F 41.1 °F 28.4 °F 57% 30.16 in 10.0 mi WSW 3.5 mph - N/A   Clear
11:20 PM 42.8 °F 39.3 °F 28.4 °F 57% 30.16 in 10.0 mi WSW 5.8 mph - N/A   Clear
11:40 PM 37.4 °F 33.8 °F 28.4 °F 70% 30.17 in 10.0 mi SSE 4.6 mph - N/A   Clear